{"data":{"norad_id":33434,"intl_designator":"2008-056B","name":"CHUANGXIN 1-02 (CX-1-02)","alt_names":[],"object_type":"PAYLOAD","status":"ACTIVE","operator":null,"country":"PRC","launch_date":"2008-11-05","launch_site_code":"JSC","launch_vehicle":null,"mission":null,"orbit_class":"UNKNOWN","rcs_meters":0.539,"size_class":null,"mass_kg":null,"dimensions":null,"purposes":[],"wikipedia_slug":null,"has_3d_model":false,"image_url":null,"decayed_at":null,"tle_current":{"epoch":"2026-09-20T05:39:51.693408Z","epoch_age_seconds":41055,"freshness":"FRESH","line1":"1 33434U 08056B   26263.23601497  .00000145  00000+0  72764-4 0  9996","line2":"2 33434  98.6104 288.5380 0013409 217.6516 142.3728 14.30169309932205","mean_motion":14.30169309,"eccentricity":0.0013409,"inclination_deg":98.6104,"raan_deg":288.538,"arg_perigee_deg":217.6516,"mean_anomaly_deg":142.3728,"bstar":7.2764e-5,"rev_number":93220,"period_min":100.6873795248,"perigee_km":781.55163338136,"apogee_km":800.77826735185,"semimajor_km":7169.3019503666,"source":"CELESTRAK","updated_at":"2026-09-20T09:00:13.700670Z"}}}